Regional Weather Roundup
Issued by NWS

Home | Current Version | Previous Version | Text Only | Print | Product List | Glossary Off
Versions: 1 2 3 4 5 6 7 8 9 10 11 12 13 14 15 16 17 18 19 20 21 22 23 24 25 26 27 28 29 30 31 32 33 34 35 36 37 38 39 40 41 42 43 44 45 46 47 48 49 50

000
ASUS43 KMKX 210221
RWRWI

WISCONSIN REGIONAL WEATHER ROUNDUP
NATIONAL WEATHER SERVICE MILWAUKEE/SULLIVAN WI
900 PM CDT FRI OCT 20 2017

NOTE: "FAIR" INDICATES FEW OR NO CLOUDS BELOW 12,000 FEET WITH NO
SIGNIFICANT WEATHER AND/OR OBSTRUCTIONS TO VISIBILITY.

WIZ001-002-006>008-014>016-023>028-210300-
NORTHWEST WISCONSIN

CITY           SKY/WX    TMP DP  RH WIND       PRES   REMARKS
SUPERIOR ARPT  CLOUDY    67  45  44 S10G17    29.71S
ASHLAND        CLOUDY    69  41  36 S13G23    29.76R
HAYWARD        PTCLDY    67  43  41 S14       29.79R
SIREN          CLOUDY    67  41  38 S13G22    29.76R
CUMBERLAND     PTCLDY    59  43  55 S8        29.79S
RICE LAKE      PTCLDY    65  44  47 SE10      29.81R
CHETEK         PTCLDY    64  46  52 S7        29.80S
LADYSMITH      PTCLDY    65  44  46 SE10      29.85R
EAU CLAIRE     PTCLDY    66  45  46 S13G21    29.81R
MENOMONIE      MOCLDY    67  43  41 S14G21    29.80S
NEW RICHMOND   CLOUDY    65  44  45 S17G25    29.76F
OSCEOLA        PTCLDY    66  44  44 S14G24    29.77S
$$

WIZ003>005-009-010-017-018-210300-
NORTH CENTRAL WISCONSIN

CITY           SKY/WX    TMP DP  RH WIND       PRES   REMARKS
MANITOWISH WTR CLOUDY    64  43  46 S12G17    29.85F
ARBOR VITAE    MOCLDY    65  41  42 S10       29.87S
WOODRUFF       MOCLDY    65  41  42 S10       29.87S
RHINELANDER    CLOUDY    65  43  44 S13G20    29.90F
EAGLE RIVER    MOCLDY    63  41  45 S7        29.89S
LAND O LAKES   PTCLDY    64  42  44 S8        29.90S
PHILLIPS       CLOUDY    64  44  48 S10G21    29.84S
TOMAHAWK       CLOUDY    58  42  54 S3        29.90S
MEDFORD        PTCLDY    60  44  55 S14       29.87F
MERRILL        CLOUDY    64  44  49 S3        29.90F
$$

WIZ029-030-035-036-043>047-210300-
CENTRAL WISCONSIN

CITY           SKY/WX    TMP DP  RH WIND       PRES   REMARKS
WAUSAU         CLOUDY    62  44  51 S9        29.89F
MOSINEE        PTCLDY    61  45  55 SE8       29.92S
MARSHFIELD     MOCLDY    59  44  57 S9        29.88F
STEVENS POINT  CLOUDY    62  44  51 S8        29.92S
WAUPACA        PTCLDY    61  45  56 SE5       29.94S
WAUTOMA        CLOUDY    62  46  55 S7        29.94S
WISC RAPIDS    PTCLDY    65  46  50 S9        29.91F
CAMP DOUGLAS   NOT AVBL
$$

WIZ011>013-019>022-031-037>040-048>050-210300-
NORTHEAST WISCONSIN

CITY           SKY/WX    TMP DP  RH WIND       PRES   REMARKS
ANTIGO         PTCLDY    55  44  68 SE8       29.94S
SHAWANO        CLOUDY    64  46  53 CALM      29.94R
OCONTO         PTCLDY    57  53  85 SE3       29.94S
STURGEON BAY   CLOUDY    59  52  77 S12       29.97S
GREEN BAY      PTCLDY    64  51  62 S8        29.95F
MANITOWOC      NOT AVBL
APPLETON       MOCLDY    63  45  51 S10       29.94
CLINTONVILLE   NOT AVBL
OSHKOSH        CLOUDY    58  49  72 S8        29.95F
$$

WIZ032>034-041-042-053>061-210300-
SOUTHWEST WISCONSIN

CITY           SKY/WX    TMP DP  RH WIND       PRES   REMARKS
LA CROSSE      CLOUDY    68  47  46 S12       29.84F
SPARTA         MOCLDY    69  47  44 S17       29.88S
VIROQUA        CLOUDY    67  46  48 S16       29.90S
BOSCOBEL       CLOUDY    70  45  40 S9        29.91S
PRAIRIE DU CHI CLOUDY    70  39  33 SE10G21   29.89S
PLATTEVILLE    CLOUDY    64  49  57 SE12      29.95S
$$

WIZ056-057-062-063-064-067-068-210300-
SOUTH CENTRAL WISCONSIN

CITY           SKY/WX    TMP DP  RH WIND       PRES   REMARKS
REEDSBURG      CLOUDY    67  47  47 S13G20    29.92F
BARABOO/DELLS  CLOUDY    65  46  50 S12G21    29.94R
LONE ROCK      CLOUDY    68  48  48 S6        29.93F
MINERAL POINT  CLOUDY    64  46  52 S9G16     29.95F
MADISON        MOCLDY    64  49  57 S9        29.96F
MIDDLETON      PTCLDY    67  48  50 S8        29.96F
WATERTOWN      PTCLDY    65  50  58 S7        29.98S
MONROE         CLOUDY    63  46  55 S14       29.98S
JANESVILLE     CLOUDY    68  48  49 S10       29.98F
$$

WIZ051-052-058>065-066-070>072-210300-
SOUTHEAST WISCONSIN

CITY           SKY/WX    TMP DP  RH WIND       PRES   REMARKS
MILWAUKEE      CLOUDY    67  51  56 S8        30.01S
WAUKESHA       CLEAR     66  48  52 S7        30.01F
MILWAUKEE/TIMM CLEAR     66  46  48 S10       30.01S
RACINE         PTCLDY    67  51  56 S10       30.03F
BURLINGTON     PTCLDY    65  51  62 S7        30.01S
KENOSHA        MOCLDY    67  49  52 S9        30.02F
FOND DU LAC    CLOUDY    62  47  57 S7        29.96F
SHEBOYGAN      CLOUDY    58  52  80 S7        29.99S
WEST BEND      PTCLDY    64  46  52 S8        29.99F
JUNEAU         CLOUDY    63  49  61 SE10      29.98S
$$

LSZ147-162-210300-
LAKE SUPERIOR

STATION/POSITION TIME  TEMP    WIND        PRES    WAVE
                       AIR SEA DIR/SP/G            HT/PER
                 (UTC) (F)     (DEG/KT/KT) (MB)    (FT/S)
W MID LAKE BUOY  0150   59 53              1007.4F   0
DEVILS ISLAND    0200   70     180/  8/ 11 1007.0R
SAXON HARBOR     0140   73     180/ 10/ 19 1006.8F
$$

LMZ867-665-643>646-210300-
LAKE MICHIGAN

STATION/POSITION TIME  TEMP    WIND        PRES    WAVE
                       AIR SEA DIR/SP/G            HT/PER
                 (UTC) (F)     (DEG/KT/KT) (MB)    (FT/S)
S GREEN BAY BUOY 0200   62 58  180/ 12/ 16 1013.8
N MID LAKE BUOY  0150   61 58  190/ 17/ 19 1015.3F   5/ 6
NORTHPORT PIER   0140   60     160/  7/ 13 1014.6S
KEWAUNEE LAKESHO 0154   55     170/ 11/ 12 1014.4S
SHEBOYGAN LAKESH 0200   59     180/ 20/ 21 1015.3F
PORT WASHINGTON  0130   56     180/  4/  6 1016.9S
ATWATER BUOY     0109   58 53  190/ 10/ 12 1016.1F
MILWAUKEE LAKESH 0200   66     190/ 11/ 12   N/A
S MID LAKE BUOY  0150   65 61  150/ 16/ 16 1017.2F   2/ 3
KENOSHA   LAKESH 0200   58     170/ 10/ 12 1016.6
$$

TC  - TEMPERATURE IN CELSIUS
VSB - VISIBILITY IN STATUTE MILES
WCI - WIND CHILL INDEX
HX  - HEAT INDEX





USA.gov is the U.S. government's official web portal to all federal, state and local government web resources and services.